| time (UTC) | temp F | wind direction | speed MPH | gust MPH | rain 1hr in | rain 24hr in | rain mn in | humidity % | barometer mb |
| 20260508030059 | 62 | 208 | 0.0 | 0.0 | 0.00 | 0.00 | 0.00 | 59 | 1014.5 |
| 20260508024556 | 63 | 207 | 0.0 | 0.0 | 0.00 | 0.00 | 0.00 | 59 | 1014.5 |
| 20260508023046 | 63 | 208 | 0.0 | 0.0 | 0.00 | 0.00 | 0.00 | 59 | 1014.4 |
| 20260508021539 | 64 | 208 | 0.0 | 0.0 | 0.00 | 0.00 | 0.00 | 60 | 1014.4 |
| 20260508020035 | 64 | 208 | 0.0 | 0.0 | 0.00 | 0.00 | 0.00 | 60 | 1014.2 |
| 20260508014531 | 64 | 208 | 0.0 | 0.0 | 0.00 | 0.00 | 0.00 | 60 | 1014.3 |
| 20260508013026 | 65 | 208 | 0.0 | 0.0 | 0.00 | 0.00 | 0.00 | 60 | 1014.2 |
| 20260508011522 | 65 | 208 | 0.0 | 0.0 | 0.00 | 0.00 | 0.00 | 60 | 1014.2 |
| 20260508010024 | 66 | 207 | 0.0 | 0.0 | 0.00 | 0.00 | 0.00 | 60 | 1014.3 |
| 20260508004516 | 66 | 208 | 0.0 | 0.0 | 0.00 | 0.00 | 0.00 | 60 | 1014.3 |
| 20260508003011 | 67 | 208 | 0.0 | 0.0 | 0.00 | 0.00 | 0.00 | 59 | 1014.2 |
| 20260508001507 | 67 | 208 | 0.0 | 0.0 | 0.00 | 0.00 | 0.00 | 59 | 1014.4 |
| 20260508000003 | 68 | 208 | 0.0 | 0.0 | 0.00 | 0.00 | 0.00 | 58 | 1014.5 |
| 20260507234559 | 68 | 200 | 0.0 | 1.0 | 0.00 | 0.00 | 0.00 | 58 | 1014.6 |
| 20260507233054 | 69 | 246 | 0.0 | 1.0 | 0.00 | 0.00 | 0.00 | 58 | 1014.5 |
| 20260507231550 | 69 | 205 | 0.0 | 1.0 | 0.00 | 0.00 | 0.00 | 58 | 1014.5 |
| 20260507230046 | 69 | 136 | 0.0 | 0.0 | 0.00 | 0.00 | 0.00 | 57 | 1014.6 |
| 20260507224541 | 69 | 136 | 0.0 | 0.0 | 0.00 | 0.01 | 0.00 | 57 | 1014.7 |
| 20260507223037 | 70 | 96 | 0.0 | 1.0 | 0.00 | 0.01 | 0.00 | 57 | 1014.8 |
| 20260507221533 | 70 | 172 | 0.0 | 0.0 | 0.00 | 0.01 | 0.00 | 56 | 1014.8 |
| 20260507220028 | 71 | 172 | 0.0 | 0.0 | 0.00 | 0.01 | 0.00 | 54 | 1014.8 |
| 20260507214524 | 71 | 165 | 0.0 | 0.0 | 0.00 | 0.01 | 0.00 | 56 | 1014.9 |
| 20260507213021 | 71 | 165 | 0.0 | 0.0 | 0.00 | 0.01 | 0.00 | 53 | 1015.1 |
| 20260507211515 | 71 | 165 | 0.0 | 0.0 | 0.00 | 0.01 | 0.00 | 56 | 1015.5 |
| 20260507210011 | 71 | 165 | 0.0 | 0.0 | 0.00 | 0.01 | 0.00 | 55 | 1015.8 |
| 20260507204509 | 71 | 165 | 0.0 | 0.0 | 0.00 | 0.01 | 0.00 | 53 | 1015.7 |
| 20260507203002 | 71 | 165 | 0.0 | 0.0 | 0.00 | 0.01 | 0.00 | 51 | 1015.5 |
| 20260507201604 | 71 | 166 | 0.0 | 0.0 | 0.00 | 0.01 | 0.00 | 52 | 1015.5 |
| 20260507200056 | 72 | 155 | 0.0 | 0.0 | 0.00 | 0.01 | 0.00 | 51 | 1016.0 |
| 20260507194558 | 72 | 155 | 0.0 | 1.0 | 0.00 | 0.01 | 0.00 | 52 | 1016.2 |
| 20260507193045 | 72 | 6 | 0.0 | 0.0 | 0.00 | 0.01 | 0.00 | 50 | 1016.5 |
| 20260507191547 | 72 | 6 | 0.0 | 1.0 | 0.00 | 0.01 | 0.00 | 50 | 1016.9 |
| 20260507190036 | 72 | 13 | 0.0 | 2.0 | 0.00 | 0.01 | 0.00 | 48 | 1017.0 |
| 20260507184536 | 73 | 205 | 0.0 | 2.0 | 0.00 | 0.01 | 0.00 | 48 | 1017.0 |
| 20260507183035 | 73 | 18 | 0.0 | 3.0 | 0.00 | 0.01 | 0.00 | 47 | 1017.0 |
| 20260507181523 | 71 | 351 | 0.0 | 2.0 | 0.00 | 0.01 | 0.00 | 50 | 1017.2 |
| 20260507180022 | 70 | 19 | 0.0 | 3.0 | 0.00 | 0.01 | 0.00 | 50 | 1017.3 |
| 20260507174515 | 70 | 23 | 0.0 | 2.0 | 0.00 | 0.01 | 0.00 | 51 | 1017.5 |
| 20260507173010 | 69 | 13 | 0.0 | 1.0 | 0.00 | 0.01 | 0.00 | 53 | 1017.8 |
| 20260507171506 | 69 | 351 | 0.0 | 2.0 | 0.00 | 0.01 | 0.00 | 52 | 1018.2 |
| 20260507170002 | 69 | 352 | 0.0 | 1.0 | 0.00 | 0.01 | 0.00 | 53 | 1018.6 |
| 20260507164629 | 68 | 27 | 0.0 | 0.0 | 0.00 | 0.01 | 0.00 | 55 | 1019.2 |
| 20260507163053 | 66 | 5 | 0.0 | 2.0 | 0.00 | 0.01 | 0.00 | 56 | 1019.2 |
| 20260507161549 | 66 | 342 | 0.0 | 1.0 | 0.00 | 0.01 | 0.00 | 56 | 1019.3 |
| 20260507160048 | 65 | 354 | 0.0 | 1.0 | 0.00 | 0.01 | 0.00 | 56 | 1019.2 |
| 20260507154540 | 64 | 13 | 0.0 | 1.0 | 0.00 | 0.01 | 0.00 | 54 | 1019.2 |
| 20260507153035 | 63 | 16 | 0.0 | 1.0 | 0.00 | 0.01 | 0.00 | 53 | 1019.4 |
| 20260507151532 | 63 | 16 | 0.0 | 1.0 | 0.00 | 0.01 | 0.00 | 51 | 1019.5 |
| 20260507150027 | 62 | 354 | 0.0 | 1.0 | 0.00 | 0.01 | 0.00 | 50 | 1019.7 |
| 20260507144523 | 61 | 352 | 0.0 | 1.0 | 0.00 | 0.01 | 0.00 | 41 | 1019.8 |
| 20260507143032 | 60 | 8 | 0.0 | 1.0 | 0.00 | 0.01 | 0.00 | 28 | 1019.9 |
| 20260507141513 | 59 | 9 | 0.0 | 0.0 | 0.00 | 0.01 | 0.00 | 14 | 1019.9 |
| 20260507140010 | 58 | 9 | 0.0 | 1.0 | 0.00 | 0.01 | 0.00 | 1 | 1019.9 |
| 20260507134505 | 57 | 11 | 0.0 | 1.0 | 0.00 | 0.01 | 0.00 | 1 | 1020.1 |
| 20260507133110 | 56 | 64 | 0.0 | 0.0 | 0.00 | 0.01 | 0.00 | 1 | 1020.4 |
| 20260507131612 | 55 | 63 | 0.0 | 0.0 | 0.00 | 0.01 | 0.00 | 1 | 1020.4 |
| 20260507130052 | 55 | 63 | 0.0 | 0.0 | 0.00 | 0.01 | 0.00 | 1 | 1020.3 |
| 20260507124548 | 54 | 63 | 0.0 | 0.0 | 0.00 | 0.01 | 0.00 | 1 | 1020.2 |
| 20260507123055 | 54 | 64 | 0.0 | 0.0 | 0.00 | 0.01 | 0.00 | 1 | 1019.9 |
| 20260507121543 | 53 | 63 | 0.0 | 0.0 | 0.00 | 0.01 | 0.00 | 1 | 1019.9 |
| 20260507120035 | 53 | 65 | 0.0 | 0.0 | 0.00 | 0.01 | 0.00 | 1 | 1019.5 |
| 20260507114531 | 53 | 13 | 0.0 | 0.0 | 0.00 | 0.01 | 0.00 | 1 | 1020.1 |
| 20260507113026 | 53 | 13 | 0.0 | 0.0 | 0.00 | 0.01 | 0.00 | 1 | 1019.6 |
| 20260507111522 | 53 | 13 | 0.0 | 0.0 | 0.00 | 0.01 | 0.00 | 1 | 1019.3 |
| 20260507110021 | 53 | 13 | 0.0 | 0.0 | 0.00 | 0.01 | 0.00 | 1 | 1019.3 |
| 20260507104513 | 53 | 13 | 0.0 | 0.0 | 0.00 | 0.01 | 0.00 | 1 | 1019.1 |
| 20260507103009 | 53 | 13 | 0.0 | 0.0 | 0.00 | 0.01 | 0.00 | 1 | 1018.7 |
| 20260507101506 | 53 | 13 | 0.0 | 0.0 | 0.00 | 0.01 | 0.00 | 1 | 1018.5 |
| 20260507094557 | 54 | 13 | 0.0 | 0.0 | 0.00 | 0.01 | 0.00 | 8 | 1017.9 |
| 20260507093051 | 55 | 13 | 0.0 | 0.0 | 0.00 | 0.01 | 0.00 | 6 | 1017.8 |
| 20260507091547 | 55 | 13 | 0.0 | 0.0 | 0.00 | 0.01 | 0.00 | 12 | 1017.7 |
| 20260507090056 | 56 | 13 | 0.0 | 0.0 | 0.00 | 0.01 | 0.00 | 16 | 1017.4 |
| 20260507084551 | 56 | 13 | 0.0 | 1.0 | 0.00 | 0.01 | 0.00 | 15 | 1017.2 |
| 20260507083043 | 56 | 13 | 0.0 | 0.0 | 0.00 | 0.01 | 0.00 | 16 | 1017.3 |
| 20260507081551 | 56 | 13 | 0.0 | 0.0 | 0.00 | 0.01 | 0.00 | 16 | 1017.5 |
| 20260507080039 | 57 | 13 | 0.0 | 1.0 | 0.00 | 0.01 | 0.00 | 17 | 1017.4 |
| 20260507074538 | 57 | 13 | 0.0 | 1.0 | 0.00 | 0.01 | 0.00 | 20 | 1017.2 |
| 20260507073034 | 57 | 15 | 0.0 | 0.0 | 0.00 | 0.01 | 0.00 | 26 | 1017.1 |
| 20260507071535 | 58 | 15 | 0.0 | 1.0 | 0.00 | 0.01 | 0.00 | 31 | 1016.5 |
| 20260507070034 | 58 | 15 | 0.0 | 1.0 | 0.00 | 0.01 | 0.00 | 32 | 1016.6 |
| 20260507064552 | 58 | 22 | 0.0 | 0.0 | 0.00 | 0.01 | 0.00 | 29 | 1016.6 |
| 20260507063133 | 58 | 148 | 0.0 | 1.0 | 0.00 | 0.01 | 0.00 | 30 | 1016.7 |
| 20260507061529 | 58 | 150 | 0.0 | 1.0 | 0.00 | 0.01 | 0.00 | 30 | 1016.6 |
| 20260507060028 | 59 | 6 | 0.0 | 1.0 | 0.00 | 0.01 | 0.00 | 36 | 1016.5 |
| 20260507054521 | 59 | 5 | 0.0 | 1.0 | 0.00 | 0.01 | 0.00 | 42 | 1016.5 |
| 20260507053020 | 59 | 21 | 0.0 | 1.0 | 0.00 | 0.01 | 0.00 | 46 | 1016.5 |
| 20260507051517 | 60 | 11 | 0.0 | 1.0 | 0.00 | 0.01 | 0.00 | 47 | 1016.6 |
| 20260507050032 | 60 | 12 | 0.0 | 1.0 | 0.00 | 0.01 | 0.00 | 46 | 1016.5 |
| 20260507044515 | 60 | 9 | 0.0 | 1.0 | 0.00 | 0.01 | 0.01 | 47 | 1016.5 |
| 20260507043013 | 60 | 49 | 0.0 | 1.0 | 0.00 | 0.01 | 0.01 | 47 | 1016.6 |
| 20260507041522 | 60 | 23 | 0.0 | 0.0 | 0.00 | 0.01 | 0.01 | 48 | 1016.7 |
| 20260507040011 | 60 | 11 | 0.0 | 1.0 | 0.00 | 0.01 | 0.01 | 45 | 1016.8 |
| 20260507034506 | 60 | 15 | 0.0 | 1.0 | 0.00 | 0.01 | 0.01 | 44 | 1016.8 |
| 20260507033002 | 60 | 11 | 0.0 | 0.0 | 0.00 | 0.01 | 0.01 | 25 | 1016.7 |
| 20260507031558 | 60 | 1 | 0.0 | 1.0 | 0.00 | 0.01 | 0.01 | 25 | 1016.6 |